Hill City, KS

7:45 AM CST on February 22, 2018 (GMT -0600)
Hill City Municipal

Weather History for KHLC - August, 2014

Change the Weather History Date:

Thursday, August 14, 2014

  Actual Average Record
Temperature  
Mean Temperature 82 °F 77 °F  
Max Temperature 97 °F 90 °F 109 °F (1936)
Min Temperature 67 °F 64 °F 50 °F (2004)
Cooling Degree Days 16    
Growing Degree Days 32 (Base 50)    
Moisture  
Dew Point 63 °F    
Average Humidity 55    
Maximum Humidity 81    
Minimum Humidity 32    
Precipitation  
Precipitation 0.05 in 0.09 in 0.50 in (2012)
Month to date precipitation 0.83 1.32  
Year to date precipitation 14.50 16.29  
Sea Level Pressure  
Sea Level Pressure 29.87 in    
Wind  
Wind Speed 11 mph (SE)    
Max Wind Speed 21 mph    
Max Gust Speed 30 mph    
Visibility 10 miles    
Events Rain , Thunderstorm    
T = Trace of Precipitation, MM = Missing Value Source: NWS Daily Summary

Daily Weather History Graph

Daily Weather History Graph

Search for Another Location

Airport or City:

Trip Planner

Search our weather history database for the weather conditions in past years. The results will help you decide how hot, cold, wet, or windy it might be!

Date:

Astronomy

Aug. 14, 2014 Rise Set
Actual Time 6:51 AM CDT 8:36 PM CDT
Civil Twilight 6:22 AM CDT 9:04 PM CDT
Nautical Twilight 5:47 AM CDT 9:39 PM CDT
Astronomical Twilight 5:10 AM CDT 10:16 PM CDT
Moon 11:02 PM CDT (8/14) 11:28 AM CDT (8/14)
Length of Visible Light 14h 42m
Length of Day
13h 44m
Waning Gibbous, 79% of the Moon is Illuminated
Aug 14
Waning Gibbous
Aug 17
Last Quarter
Aug 25
New
Sep 2
First Quarter
Sep 8
Full

Hourly Weather History & Observations

Time (CDT) Temp. Heat Index Dew Point Humidity Pressure Visibility Wind Dir Wind Speed Gust Speed Precip Events Conditions
12:53 AM 73.0 °F - 61.0 °F 66% 29.98 in 10.0 mi SE 11.5 mph - N/A   Partly Cloudy
1:53 AM 73.0 °F - 61.0 °F 66% 29.97 in 10.0 mi ESE 8.1 mph - N/A   Partly Cloudy
3:53 AM 70.0 °F - 63.0 °F 78% 29.94 in 10.0 mi ESE 8.1 mph - 0.02 in Rain Light Rain
4:53 AM 70.0 °F - 62.1 °F 76% 29.93 in 10.0 mi SSE 12.7 mph - 0.00 in   Partly Cloudy
5:53 AM 68.0 °F - 62.1 °F 81% 29.92 in 10.0 mi SE 6.9 mph - N/A   Partly Cloudy
6:53 AM 66.9 °F - 61.0 °F 81% 29.93 in 10.0 mi SE 5.8 mph - N/A   Clear
7:53 AM 69.1 °F - 62.1 °F 78% 29.94 in 10.0 mi SE 8.1 mph - N/A   Mostly Cloudy
8:53 AM 71.1 °F - 63.0 °F 75% 29.94 in 10.0 mi South 10.4 mph - N/A   Clear
9:53 AM 77.0 °F - 63.0 °F 62% 29.92 in 10.0 mi SSE 8.1 mph - N/A   Clear
10:53 AM 82.0 °F 83.0 °F 62.1 °F 51% 29.92 in 10.0 mi SSE 10.4 mph - N/A   Clear
11:53 AM 88.0 °F 88.4 °F 62.1 °F 42% 29.90 in 10.0 mi SE 8.1 mph - N/A   Clear
12:53 PM 91.0 °F 91.5 °F 62.1 °F 38% 29.88 in 10.0 mi SE 11.5 mph - N/A   Clear
1:53 PM 93.9 °F 95.2 °F 63.0 °F 36% 29.85 in 10.0 mi ESE 13.8 mph 21.9 mph N/A   Clear
2:53 PM 95.0 °F 96.0 °F 63.0 °F 34% 29.83 in 10.0 mi SE 18.4 mph 24.2 mph N/A   Clear
3:53 PM 97.0 °F 98.3 °F 63.0 °F 32% 29.82 in 10.0 mi SSE 20.7 mph 29.9 mph N/A   Partly Cloudy
4:53 PM 93.0 °F 94.6 °F 64.0 °F 38% 29.81 in 10.0 mi SE 20.7 mph 26.5 mph N/A   Clear
5:53 PM 91.0 °F 93.0 °F 64.9 °F 42% 29.80 in 10.0 mi SE 18.4 mph 24.2 mph N/A   Partly Cloudy
6:53 PM 90.0 °F 91.7 °F 64.9 °F 43% 29.79 in 10.0 mi SE 17.3 mph 26.5 mph N/A   Clear
7:53 PM 88.0 °F 89.3 °F 64.0 °F 45% 29.80 in 10.0 mi SE 13.8 mph - N/A   Clear
8:53 PM 84.9 °F 86.1 °F 64.0 °F 49% 29.81 in 10.0 mi SE 11.5 mph 21.9 mph N/A   Partly Cloudy
9:53 PM 84.0 °F 84.9 °F 63.0 °F 49% 29.81 in 10.0 mi SSE 13.8 mph 21.9 mph N/A   Mostly Cloudy
10:53 PM 82.9 °F 83.7 °F 62.1 °F 49% 29.81 in 10.0 mi SSE 17.3 mph 25.3 mph N/A Thunderstorm Scattered Clouds
11:53 PM 80.1 °F 81.7 °F 64.0 °F 58% 29.81 in 10.0 mi SSE 8.1 mph - 0.00 in Thunderstorm Thunderstorm